Regional Weather Roundup
Issued by NWS

Home | Current Version | Previous Version | Text Only | Print | Product List | Glossary Off
Versions: 1 2 3 4 5 6 7 8 9 10 11 12 13 14 15 16 17 18 19 20 21 22 23 24 25 26 27 28 29 30 31 32 33 34 35 36 37 38 39 40 41 42 43 44 45 46 47 48 49 50

000
ASUS43 KLMK 021002
RWRKY
KENTUCKY REGIONAL WEATHER ROUNDUP
NATIONAL WEATHER SERVICE LOUISVILLE KY
600 AM EDT SUN AUG 02 2015

NOTE "FAIR" INDICATES FEW OR NO CLOUDS BELOW 12,000 FEET
WITH NO SIGNIFICANT WEATHER AND/OR OBSTRUCTIONS TO VISIBILITY.

KYZ001>023-026-027-061>063-070>075-021100-
WESTERN AND SOUTH CENTRAL KENTUCKY

CITY           SKY/WX    TMP DP  RH WIND       PRES   REMARKS
PADUCAH        CLEAR     68  65  90 CALM      29.95S
HENDERSON      MOCLDY    64  61  88 CALM      29.96S
OWENSBORO      MOCLDY    68  65  90 CALM      29.98S
HOPKINSVILLE   CLEAR     64  63  95 CALM      29.98R
BOWLING GREEN  CLOUDY    62  59  90 CALM      29.99S
GLASGOW        NOT AVBL
$$

KYZ024-025-028>034-038-045-046-053-021100-
NORTH CENTRAL KENTUCKY

CITY           SKY/WX    TMP DP  RH WIND       PRES   REMARKS
LOUISVILLE/SDF CLOUDY    68  61  78 SE3       29.98S
LOUISVILLE/LOU MOCLDY    66  61  84 CALM      29.99F
FORT KNOX      NOT AVBL
$$

KYZ035>037-039>044-047>052-055>060-089>105-021100-
NORTHEAST KENTUCKY

CITY           SKY/WX    TMP DP  RH WIND       PRES   REMARKS
LEXINGTON      MOCLDY    61  59  93 CALM      30.01S
COVINGTON      MOCLDY    61  59  93 S3        29.98F
FRANKFORT      MOCLDY    61  58  90 CALM      29.99S
$$

KYZ054-064>069-076>088-106>120-021100-
SOUTHEAST KENTUCKY

CITY           SKY/WX    TMP DP  RH WIND       PRES   REMARKS
JACKSON        CLEAR     63  59  87 CALM      30.01F
LONDON         CLEAR     60  56  86 S5        30.01S
SOMERSET       NOT AVBL
MIDDLESBORO    PTCLDY    58  58  99 CALM      30.03R
MONTICELLO     SUNNY     57  57 100 CALM      30.03S FOG
$$



USA.gov is the U.S. government's official web portal to all federal, state and local government web resources and services.